Location: Nitra
(0.0000°N, 18.0833°E)
Time: 00:31:26
(UTC+02:00)

ARIANE 5 DEB (SYLDA) - Pass Details

Date: 30 March 2023
Orbit: 830 x 35917 km, 2.4° (Epoch: 08 June)

Event Time Altitude Azimuth Distance (km) Brightness Sun altitude
Exits shadow 06:01:05 13° 269° (W) 27,396 9.7 -12.8°
Maximum altitude 06:33:14 14° 269° (W) 31,316 10.0 -4.8°
Drops below altitude 10° 07:49:40 10° 269° (W) 38,073 10.5 14.3°
Sets 09:24:48 0° 268° (W) 41,819 10.8 38.0°
